[Date Prev][Date Next][Thread Prev][Thread Next] - [Date Index][Thread Index][Author Index]

2 Line ISS Keps 6-1



ISS
1 25544U 98067A   03152.35008950  .00012330  00000-0  16073-3 0   698
2 25544  51.6316  99.8124 0006620 198.9069 299.6972 15.59124133258534



----
Via the sarex mailing list at AMSAT.ORG courtesy of AMSAT-NA.
To unsubscribe, send "unsubscribe sarex" to Majordomo@amsat.org



AMSAT Top AMSAT Home